GW4853 Weather Reports


Display with metric or nautical units.
time (UTC)temp
F
wind
direction
speed
MPH
gust
MPH
rain 1hr
in
rain 24hr
in
rain mn
in
humidity
%
barometer
mb
20260509084119 54 108 0.0 0.0 0.00 0.00 0.00 89 1009.1
20260509083616 54 108 0.0 0.0 0.00 0.00 0.00 89 1009.1
20260509083113 54 19 2.0 3.0 0.00 0.00 0.00 89 1009.2
20260509082610 54 325 3.0 4.0 0.00 0.00 0.00 88 1009.5
20260509082107 54 118 0.0 0.0 0.00 0.00 0.00 88 1009.3
20260509081604 54 118 0.0 0.0 0.00 0.00 0.00 87 1009.3
20260509081101 54 118 0.0 0.0 0.00 0.00 0.00 86 1008.9
20260509080559 54 117 0.0 0.0 0.00 0.00 0.00 85 1009.1
20260509080057 54 117 0.0 0.0 0.00 0.00 0.00 86 1009.1
20260509075555 54 359 0.0 0.0 0.00 0.00 0.00 86 1009.1
20260509075052 54 313 1.0 2.0 0.00 0.00 0.00 85 1009.4
20260509074549 54 89 0.0 1.0 0.00 0.00 0.00 82 1009.3
20260509074045 54 93 2.0 3.0 0.00 0.00 0.00 84 1009.2
20260509073542 54 237 0.0 1.0 0.00 0.00 0.00 85 1009.5
20260509073038 54 132 2.0 2.0 0.00 0.00 0.00 85 1009.2
20260509072535 54 26 0.0 1.0 0.00 0.00 0.00 85 1009.4
20260509072032 54 313 1.0 1.0 0.00 0.00 0.00 84 1009.5
20260509071528 55 79 0.0 0.0 0.00 0.00 0.00 83 1009.3
20260509071026 55 78 0.0 0.0 0.00 0.00 0.00 82 1009.4
20260509070523 55 79 1.0 1.0 0.00 0.00 0.00 83 1009.5
20260509070019 55 79 0.0 1.0 0.00 0.00 0.00 83 1009.5
20260509065515 55 78 0.0 0.0 0.00 0.00 0.00 83 1009.5
20260509065011 55 79 0.0 0.0 0.00 0.00 0.00 82 1009.5
20260509064509 55 79 1.0 1.0 0.00 0.00 0.00 83 1009.5
20260509064007 55 328 0.0 1.0 0.00 0.00 0.00 84 1009.4
20260509063502 55 329 0.0 0.0 0.00 0.00 0.00 82 1009.2
20260509062959 55 355 1.0 3.0 0.00 0.00 0.00 82 1009.1
20260509062456 56 356 2.0 2.0 0.00 0.00 0.00 80 1009.3
20260509061954 56 131 1.0 2.0 0.00 0.00 0.00 77 1009.3
20260509061451 56 98 0.0 1.0 0.00 0.00 0.00 75 1009.3
20260509060948 56 98 0.0 1.0 0.00 0.00 0.00 77 1009.4
20260509060446 56 98 0.0 1.0 0.00 0.00 0.00 79 1009.4
20260509055941 56 99 0.0 1.0 0.00 0.00 0.00 79 1009.5
20260509055436 56 98 0.0 1.0 0.00 0.00 0.00 79 1009.3
20260509054933 55 63 1.0 2.0 0.00 0.00 0.00 81 1009.3
20260509054430 55 115 1.0 2.0 0.00 0.00 0.00 81 1009.5
20260509053928 56 327 1.0 2.0 0.00 0.00 0.00 82 1009.3
20260509053426 56 328 0.0 0.0 0.00 0.00 0.00 82 1009.3
20260509052923 56 327 0.0 1.0 0.00 0.00 0.00 81 1009.5
20260509052420 56 345 1.0 1.0 0.00 0.00 0.00 76 1009.2
20260509051918 56 86 1.0 2.0 0.00 0.00 0.00 73 1009.4
20260509051416 56 86 0.0 1.0 0.00 0.00 0.00 74 1009.4
20260509050913 56 87 0.0 1.0 0.00 0.00 0.00 78 1009.5
20260509050409 56 332 1.0 1.0 0.00 0.00 0.00 80 1009.4
20260509045906 57 332 0.0 1.0 0.00 0.00 0.00 80 1009.4
20260509045403 57 331 0.0 0.0 0.00 0.00 0.00 80 1009.6
20260509044900 57 331 1.0 1.0 0.00 0.00 0.00 79 1009.6
20260509044358 57 331 1.0 2.0 0.00 0.00 0.00 76 1009.5
20260509043855 57 119 1.0 2.0 0.00 0.00 0.00 74 1009.3
20260509043350 58 120 1.0 1.0 0.00 0.00 0.00 71 1009.4
20260509042846 58 120 0.0 1.0 0.00 0.00 0.00 69 1009.7
20260509042343 58 120 0.0 0.0 0.00 0.00 0.00 66 1009.5
20260509041840 58 120 1.0 1.0 0.00 0.00 0.00 66 1009.6
20260509041336 58 120 0.0 0.0 0.00 0.00 0.00 63 1009.6
20260509040835 58 120 0.0 0.0 0.00 0.00 0.00 64 1009.7
20260509040332 58 120 0.0 0.0 0.00 0.00 0.00 66 1009.6
20260509035829 58 120 0.0 1.0 0.00 0.00 0.00 67 1009.8
20260509035326 58 120 0.0 0.0 0.00 0.00 0.00 62 1009.6
20260509034822 58 120 0.0 1.0 0.00 0.00 0.00 61 1009.9
20260509034320 59 120 0.0 1.0 0.00 0.00 0.00 63 1009.9
20260509033817 59 120 0.0 1.0 0.00 0.00 0.00 62 1009.7
20260509033314 60 120 1.0 2.0 0.00 0.00 0.00 62 1009.8
20260509032810 59 119 1.0 2.0 0.00 0.00 0.00 54 1009.8
20260509032308 58 122 0.0 0.0 0.00 0.00 0.00 63 1010.0
20260509031805 59 122 0.0 1.0 0.00 0.00 0.00 66 1010.0
20260509031303 59 122 0.0 1.0 0.00 0.00 0.00 62 1009.8
20260509030800 60 122 0.0 1.0 0.00 0.00 0.00 60 1010.0
20260509030258 60 121 1.0 1.0 0.00 0.00 0.00 53 1010.0
20260509025755 60 122 1.0 1.0 0.00 0.00 0.00 59 1009.9
20260509025250 60 122 1.0 2.0 0.00 0.00 0.00 54 1010.1
20260509024745 60 122 0.0 1.0 0.00 0.00 0.00 59 1010.1
20260509024242 60 123 0.0 1.0 0.00 0.00 0.00 60 1010.3
20260509023739 60 122 0.0 1.0 0.00 0.00 0.00 66 1010.4
20260509023236 60 122 0.0 1.0 0.00 0.00 0.00 62 1010.0
20260509022732 61 122 0.0 1.0 0.00 0.00 0.00 62 1010.2
20260509022230 62 115 2.0 2.0 0.00 0.00 0.00 51 1010.2
20260509021727 61 115 0.0 1.0 0.00 0.00 0.00 57 1010.1
20260509021224 62 116 1.0 1.0 0.00 0.00 0.00 56 1010.2
20260509020722 63 115 1.0 1.0 0.00 0.00 0.00 50 1010.2
20260509020219 63 111 0.0 1.0 0.00 0.00 0.00 45 1010.2
20260509015717 63 111 1.0 2.0 0.00 0.00 0.00 46 1010.3
20260509015215 64 111 1.0 2.0 0.00 0.00 0.00 46 1010.3
20260509014711 64 111 2.0 2.0 0.00 0.00 0.00 46 1010.2
20260509014208 64 112 1.0 1.0 0.00 0.00 0.00 45 1010.3
20260509013705 64 92 1.0 1.0 0.00 0.00 0.00 45 1010.1
20260509013200 64 88 1.0 2.0 0.00 0.00 0.00 44 1010.3
20260509012657 64 88 0.0 1.0 0.00 0.00 0.00 45 1010.0
20260509012154 64 88 1.0 1.0 0.00 0.00 0.00 45 1010.2
20260509011652 64 84 1.0 2.0 0.00 0.00 0.00 45 1010.2
20260509011149 65 89 1.0 2.0 0.00 0.00 0.00 46 1010.0
20260509010647 65 89 0.0 2.0 0.00 0.00 0.00 44 1010.2
20260509010143 65 95 1.0 2.0 0.00 0.00 0.00 45 1010.1
20260509005641 65 105 1.0 3.0 0.00 0.00 0.00 43 1010.1
20260509005137 65 88 1.0 3.0 0.00 0.00 0.00 43 1010.0
20260509004633 65 115 1.0 2.0 0.00 0.00 0.00 43 1010.0
20260509004130 65 96 0.0 3.0 0.00 0.00 0.00 43 1010.0
20260509003628 65 98 3.0 3.0 0.00 0.00 0.00 42 1010.1
20260509003125 66 86 1.0 2.0 0.00 0.00 0.00 44 1009.9
20260509002623 66 93 1.0 2.0 0.00 0.00 0.00 43 1010.0
20260509002120 66 134 1.0 2.0 0.00 0.00 0.00 43 1010.1
20260509001618 66 203 1.0 2.0 0.00 0.00 0.00 42 1010.1
20260509001113 66 78 1.0 2.0 0.00 0.00 0.00 42 1010.2
20260509000612 66 109 1.0 3.0 0.00 0.00 0.00 42 1010.1
20260509000108 67 79 1.0 2.0 0.00 0.00 0.00 41 1010.1
20260508235605 67 212 1.0 3.0 0.00 0.00 0.00 41 1010.2
20260508235101 67 149 1.0 4.0 0.00 0.00 0.00 40 1010.0
20260508234559 67 110 2.0 6.0 0.00 0.00 0.00 40 1009.9
20260508234055 67 125 1.0 4.0 0.00 0.00 0.00 41 1010.0
20260508233555 67 186 4.0 6.0 0.00 0.00 0.00 39 1009.9
20260508233052 68 150 2.0 4.0 0.00 0.00 0.00 39 1009.8
20260508232549 68 157 4.0 8.0 0.00 0.00 0.00 39 1009.9
20260508232046 68 134 4.0 7.0 0.00 0.00 0.00 40 1009.8
20260508231543 68 118 1.0 4.0 0.00 0.00 0.00 41 1009.8
20260508231040 68 170 2.0 6.0 0.00 0.00 0.00 38 1009.8
20260508230537 68 239 3.0 6.0 0.00 0.00 0.00 39 1009.9
20260508230033 69 233 0.0 3.0 0.00 0.00 0.00 42 1009.8
20260508225531 69 93 2.0 4.0 0.00 0.00 0.00 41 1009.9
20260508225028 69 106 3.0 7.0 0.00 0.00 0.00 38 1009.8
20260508224525 69 214 3.0 10.0 0.00 0.00 0.00 38 1009.7
20260508224022 69 264 1.0 2.0 0.00 0.00 0.00 41 1009.9
20260508223520 69 147 3.0 3.0 0.00 0.00 0.00 40 1010.1
20260508223017 69 94 1.0 2.0 0.00 0.00 0.00 41 1009.9
20260508222515 70 202 5.0 8.0 0.00 0.00 0.00 38 1010.0
20260508222011 71 225 5.0 9.0 0.00 0.00 0.00 37 1009.9
20260508221508 71 299 2.0 4.0 0.00 0.00 0.00 38 1010.3
20260508221003 72 178 3.0 6.0 0.00 0.00 0.00 37 1010.1
20260508220500 72 137 6.0 9.0 0.00 0.00 0.00 35 1009.9
20260508215956 72 216 4.0 7.0 0.00 0.00 0.00 35 1009.9
20260508215453 72 322 2.0 13.0 0.00 0.00 0.00 35 1009.9
20260508214950 72 182 3.0 6.0 0.00 0.00 0.00 36 1009.8
20260508214448 73 176 5.0 10.0 0.00 0.00 0.00 35 1009.8
20260508213943 73 233 2.0 7.0 0.00 0.00 0.00 35 1010.1
20260508213441 73 225 3.0 3.0 0.00 0.00 0.00 37 1010.2
20260508212936 71 193 6.0 8.0 0.00 0.00 0.00 36 1010.0
20260508212433 73 195 7.0 8.0 0.00 0.00 0.00 35 1010.3
20260508211929 72 164 4.0 10.0 0.00 0.00 0.00 39 1010.1
20260508211425 72 218 6.0 8.0 0.00 0.00 0.00 35 1010.4
20260508210922 71 216 3.0 4.0 0.00 0.00 0.00 42 1010.3
20260508210419 70 194 6.0 9.0 0.00 0.00 0.00 38 1010.3
20260508205915 71 189 5.0 8.0 0.00 0.00 0.00 36 1010.3
20260508205413 70 168 2.0 11.0 0.00 0.00 0.00 37 1010.5
20260508204908 70 159 5.0 8.0 0.00 0.00 0.00 38 1010.4
20260508204406 71 187 4.0 7.0 0.00 0.00 0.00 36 1010.5
20260508203901 70 323 2.0 11.0 0.00 0.00 0.00 39 1010.3
20260508203358 71 199 3.0 4.0 0.00 0.00 0.00 37 1010.6
20260508202853 71 161 5.0 9.0 0.00 0.00 0.00 37 1010.7
20260508202351 70 267 1.0 3.0 0.00 0.00 0.00 41 1010.8
20260508201848 70 163 4.0 7.0 0.00 0.00 0.00 39 1010.8
20260508201345 71 159 5.0 9.0 0.00 0.00 0.00 36 1011.0
20260508200841 71 223 5.0 8.0 0.00 0.00 0.00 38 1010.9
20260508200338 72 286 4.0 6.0 0.00 0.00 0.00 37 1010.9
20260508195834 71 191 4.0 7.0 0.00 0.00 0.00 36 1010.9
20260508195331 71 132 2.0 6.0 0.00 0.00 0.00 40 1011.2
20260508194827 71 164 5.0 8.0 0.00 0.00 0.00 39 1011.5
20260508194325 71 145 4.0 9.0 0.00 0.00 0.00 39 1011.5
20260508193821 70 212 2.0 10.0 0.00 0.00 0.00 40 1011.6
20260508193318 70 113 3.0 4.0 0.00 0.00 0.00 41 1011.5
20260508192814 70 149 5.0 8.0 0.00 0.00 0.00 40 1011.8
20260508192312 70 164 5.0 6.0 0.00 0.00 0.00 44 1012.1
20260508191809 68 192 2.0 3.0 0.00 0.00 0.00 42 1012.3
20260508191306 69 274 4.0 9.0 0.00 0.00 0.00 38 1012.4
20260508190803 69 99 1.0 6.0 0.00 0.00 0.00 46 1012.4
20260508190259 70 259 4.0 7.0 0.00 0.00 0.00 39 1012.4
20260508185755 71 143 2.0 8.0 0.00 0.00 0.00 38 1012.6
20260508185253 70 301 2.0 7.0 0.00 0.00 0.00 44 1012.7
20260508184750 69 236 2.0 7.0 0.00 0.00 0.00 40 1012.8
20260508184247 69 218 4.0 10.0 0.00 0.00 0.00 39 1012.7
20260508183744 69 123 4.0 9.0 0.00 0.00 0.00 40 1012.8
20260508183240 69 228 4.0 8.0 0.00 0.00 0.00 40 1013.1
20260508182736 69 167 6.0 9.0 0.00 0.00 0.00 38 1012.9
20260508182233 69 200 5.0 7.0 0.00 0.00 0.00 41 1013.1
20260508181729 69 217 4.0 6.0 0.00 0.00 0.00 41 1013.1
20260508181226 68 213 4.0 4.0 0.00 0.00 0.00 41 1013.1
20260508180723 68 201 4.0 4.0 0.00 0.00 0.00 40 1013.2
20260508180220 69 182 4.0 8.0 0.00 0.00 0.00 40 1013.3
20260508175716 69 165 6.0 8.0 0.00 0.00 0.00 38 1013.5
20260508175213 69 258 1.0 8.0 0.00 0.00 0.00 41 1013.4
20260508174711 68 311 2.0 4.0 0.00 0.00 0.00 45 1013.6
20260508174208 68 242 4.0 7.0 0.00 0.00 0.00 44 1013.8
20260508173704 68 209 3.0 7.0 0.00 0.00 0.00 41 1013.8
20260508173200 69 112 1.0 3.0 0.00 0.00 0.00 44 1013.8
20260508172658 67 180 1.0 3.0 0.00 0.00 0.00 48 1013.7
20260508172154 67 100 5.0 8.0 0.00 0.00 0.00 41 1014.0
20260508171651 67 134 2.0 9.0 0.00 0.00 0.00 48 1014.1
20260508171147 66 202 6.0 8.0 0.00 0.00 0.00 40 1014.4
20260508170644 67 129 2.0 7.0 0.00 0.00 0.00 44 1014.4
20260508170142 65 212 5.0 13.0 0.00 0.00 0.00 43 1014.5
20260508165639 66 118 2.0 6.0 0.00 0.00 0.00 44 1014.7
20260508165136 65 171 4.0 4.0 0.00 0.00 0.00 43 1014.8
20260508164632 63 169 1.0 3.0 0.00 0.00 0.00 50 1014.8
20260508164129 63 218 5.0 7.0 0.00 0.00 0.00 43 1015.1
20260508163626 63 184 2.0 3.0 0.00 0.00 0.00 46 1015.2
20260508163123 64 333 2.0 7.0 0.00 0.00 0.00 44 1015.3
20260508162614 64 307 4.0 6.0 0.00 0.00 0.00 43 1015.5
20260508162111 66 206 8.0 10.0 0.00 0.00 0.00 40 1015.6
20260508161608 66 218 8.0 13.0 0.00 0.00 0.00 39 1015.7
20260508161105 67 201 2.0 7.0 0.00 0.00 0.00 44 1015.7
20260508160604 66 189 6.0 7.0 0.00 0.00 0.00 43 1015.7
20260508160100 64 137 2.0 7.0 0.00 0.00 0.00 42 1015.8
20260508155557 65 159 3.0 4.0 0.00 0.00 0.00 42 1015.7
20260508155054 63 186 5.0 6.0 0.00 0.00 0.00 45 1015.9
20260508154551 61 248 2.0 6.0 0.00 0.00 0.00 48 1015.9
20260508154048 61 22 2.0 6.0 0.00 0.00 0.00 47 1016.0
20260508153545 62 314 2.0 3.0 0.00 0.00 0.00 46 1016.0
20260508153041 63 337 1.0 4.0 0.00 0.00 0.00 46 1016.1
20260508152539 63 78 1.0 4.0 0.00 0.00 0.00 45 1016.1
20260508152034 62 231 2.0 3.0 0.00 0.00 0.00 49 1016.2
20260508151531 61 218 0.0 4.0 0.00 0.00 0.00 51 1016.2
20260508151028 61 226 1.0 7.0 0.00 0.00 0.00 47 1016.0
20260508150525 60 194 4.0 8.0 0.00 0.00 0.00 48 1016.2
20260508150021 60 230 1.0 6.0 0.00 0.00 0.00 48 1016.3
20260508145518 60 203 4.0 7.0 0.00 0.00 0.00 48 1016.2
20260508145014 61 294 1.0 4.0 0.00 0.00 0.00 51 1016.3
20260508144512 61 231 1.0 6.0 0.00 0.00 0.00 50 1016.4
20260508144009 60 255 2.0 7.0 0.00 0.00 0.00 49 1016.5
20260508143507 60 272 1.0 8.0 0.00 0.00 0.00 51 1016.4
20260508143002 60 190 3.0 7.0 0.00 0.00 0.00 50 1016.4
20260508142500 59 326 2.0 3.0 0.00 0.00 0.00 56 1016.5
20260508141956 59 153 2.0 4.0 0.00 0.00 0.00 48 1016.4
20260508141453 58 285 3.0 6.0 0.00 0.00 0.00 51 1016.8
20260508140951 59 248 6.0 8.0 0.00 0.00 0.00 51 1016.6
20260508140448 58 240 4.0 6.0 0.00 0.00 0.00 52 1016.7
20260508135943 57 248 1.0 6.0 0.00 0.00 0.00 54 1016.6
20260508135440 57 227 4.0 7.0 0.00 0.00 0.00 53 1016.6
20260508134936 56 244 4.0 8.0 0.00 0.00 0.00 56 1016.7
20260508134433 56 220 3.0 4.0 0.00 0.00 0.00 57 1016.8
20260508133930 56 190 3.0 4.0 0.00 0.00 0.00 59 1016.8
20260508133427 56 206 3.0 6.0 0.00 0.00 0.00 58 1016.6
20260508132924 56 114 2.0 4.0 0.00 0.00 0.00 61 1016.8
20260508132422 55 150 2.0 3.0 0.00 0.00 0.00 63 1016.4
20260508131918 54 178 2.0 7.0 0.00 0.00 0.00 62 1016.3
20260508131414 54 128 2.0 3.0 0.00 0.00 0.00 64 1016.2
20260508130911 53 125 1.0 3.0 0.00 0.00 0.00 66 1016.0
20260508130408 53 166 2.0 3.0 0.00 0.00 0.00 66 1015.9
20260508125903 52 94 0.0 2.0 0.00 0.00 0.00 68 1015.9
20260508125359 52 90 1.0 2.0 0.00 0.00 0.00 70 1015.7
20260508124858 51 118 0.0 1.0 0.00 0.00 0.00 74 1015.7
20260508124355 50 118 1.0 2.0 0.00 0.00 0.00 72 1015.8
20260508123853 49 91 1.0 2.0 0.00 0.00 0.00 73 1015.8
20260508123351 49 97 1.0 1.0 0.00 0.00 0.00 75 1015.8
20260508122847 48 110 1.0 2.0 0.00 0.00 0.00 78 1015.9
20260508122344 47 111 1.0 2.0 0.00 0.00 0.00 77 1015.9
20260508121841 46 114 1.0 2.0 0.00 0.00 0.00 79 1015.7
20260508121339 46 113 0.0 2.0 0.00 0.00 0.00 81 1015.6
20260508120837 46 113 1.0 2.0 0.00 0.00 0.00 79 1015.7
20260508120334 44 98 0.0 2.0 0.00 0.00 0.00 84 1015.5
20260508115832 43 106 1.0 1.0 0.00 0.00 0.00 87 1015.4
20260508115329 42 95 1.0 2.0 0.00 0.00 0.00 89 1015.2
20260508114826 41 100 2.0 2.0 0.00 0.00 0.00 90 1015.3
20260508114323 40 105 2.0 2.0 0.00 0.00 0.00 91 1015.4
20260508113819 39 115 2.0 2.0 0.00 0.00 0.00 92 1015.3
20260508113318 39 115 1.0 2.0 0.00 0.00 0.00 92 1015.2
20260508112813 38 115 1.0 2.0 0.00 0.00 0.00 93 1015.4
20260508112311 38 115 1.0 2.0 0.00 0.00 0.00 94 1015.3
20260508111807 38 116 0.0 1.0 0.00 0.00 0.00 94 1015.2
20260508111305 37 116 1.0 1.0 0.00 0.00 0.00 95 1015.2
20260508110802 37 116 1.0 2.0 0.00 0.00 0.00 95 1015.0
20260508110259 37 116 1.0 1.0 0.00 0.00 0.00 95 1015.1
20260508105753 37 116 0.0 1.0 0.00 0.00 0.00 95 1015.2
20260508105251 37 116 1.0 2.0 0.00 0.00 0.00 96 1015.0
20260508104748 37 116 0.0 1.0 0.00 0.00 0.00 96 1014.9
20260508104244 36 115 1.0 1.0 0.00 0.00 0.00 96 1015.0
20260508103742 36 115 1.0 1.0 0.00 0.00 0.00 96 1014.9
20260508103238 36 116 1.0 1.0 0.00 0.00 0.00 96 1014.8
20260508102736 36 116 0.0 1.0 0.00 0.00 0.00 96 1014.8
20260508102234 36 116 1.0 1.0 0.00 0.00 0.00 96 1014.7
20260508101731 36 115 1.0 2.0 0.00 0.00 0.00 96 1014.7
20260508101228 36 116 0.0 1.0 0.00 0.00 0.00 96 1014.6
20260508100726 37 115 1.0 2.0 0.00 0.00 0.00 95 1014.7
20260508100224 37 118 1.0 1.0 0.00 0.00 0.00 95 1014.7
20260508095719 37 118 1.0 1.0 0.00 0.00 0.00 95 1014.6
20260508095218 37 118 2.0 2.0 0.00 0.00 0.00 95 1014.6
20260508094714 37 113 1.0 1.0 0.00 0.00 0.00 95 1014.5
20260508094211 37 112 1.0 1.0 0.00 0.00 0.00 95 1014.5
20260508093708 37 112 1.0 2.0 0.00 0.00 0.00 95 1014.6
20260508093206 37 123 1.0 1.0 0.00 0.00 0.00 95 1014.4
20260508092702 37 124 1.0 1.0 0.00 0.00 0.00 95 1014.5
20260508092201 37 124 1.0 2.0 0.00 0.00 0.00 95 1014.4
20260508091658 37 104 1.0 1.0 0.00 0.00 0.00 95 1014.7
20260508091155 37 104 1.0 1.0 0.00 0.00 0.00 95 1014.5
20260508090653 37 104 2.0 2.0 0.00 0.00 0.00 95 1014.4
20260508090150 37 104 1.0 2.0 0.00 0.00 0.00 95 1014.3
20260508085645 37 103 1.0 2.0 0.00 0.00 0.00 95 1014.1
20260508085143 37 103 1.0 1.0 0.00 0.00 0.00 95 1014.4
20260508084639 38 104 1.0 2.0 0.00 0.00 0.00 95 1014.3